Location: Newark
(51.2625°N, 13.3939°E)
Time: 14:33:57
(UTC+00:00)

Explorer 7 - Pass Details

Date: 13 November 2019
Orbit: 485 x 680 km, 50.3° (Epoch: 11 December)

Event Time Altitude Azimuth Distance (km) Brightness Sun altitude
Rises 03:36:51 0° 258° (WSW) 2,794 - -25.3°
Reaches altitude 10° 03:39:11 10° 256° (WSW) 1,861 - -25.0°
Maximum altitude 03:43:24 74° 172° (S) 565 - -24.3°
Exits shadow 03:43:49 66° 122° (ESE) 589 7.0 -24.2°
Drops below altitude 10° 03:47:22 10° 87° (E) 1,753 10.5 -23.7°
Sets 03:49:31 0° 86° (E) 2,615 11.7 -23.3°
